STARLINK-1142, 45093

Orbit data source: Space-Track

STARLINK-1142, 45093 is a payload satellite owned by SpaceX/Seattle (US) in LEO that was launched on Wed, 29 Jan 2020 UTC via an FALCON 9 launch vehicle from the Air Force Eastern Test Range (AFETR). Payload-class satellites include a variety of spacecraft equipped with specific instruments for various scientific and technological missions. These include communications satellites like Starlink; space stations such as the ISS; scientific satellites like the Hubble; Earth observation satellites from companies like Planet Labs, Umbra, and HawkEye 360; GPS; miniature CubeSats for education and research; and military/defense satellites.

Loading next visibility...
Identifier
45093, 2020-006BB
Orbit
LEO
Country
Flag of USUS
Related business
Manufacturer
SpaceX/Seattle
Mission
Partially operational Commercial Communications
Bus & Motor
STARLINK, Unknown motor
Mass
260 kg wet, ~248 kg dry
Launch date (UTC)
2020-01-29 (6 years ago)
Launch vehicle
FALCON 9
Launch site
Air Force Eastern Test Range (AFETR)
Object type
Payload
Rocket body
Debris
Shape & HBR
Box + 1 Pan, 10.1 m
Radar Cross Section
13.562 m², Large (>1 m²)

Expand to show TLE details & history
Last TLE update: 8 hours ago

TLE from 8 hours ago
0 STARLINK-1142
1 45093U 20006BB  25352.66667824  .00825291  32046-3  17470-2 0  9997
2 45093  53.0185 159.7599 0008755 255.3907  17.6164 15.98172116  6008
Epoch: 2025-12-18T16:00Z
TLE epoch observation values (Epoch: 2025-12-18T16:00:00.999Z)
Latitude
-53.06861°
Longitude
107.26562°
Altitude
292.336 km
Speed
7.735 km/s
True Right ascension
04h 59m 09s
True Declination
-52° 53' 30"
Sunlit
Object was in daylight at epoch
Visualization orbit readout
Latitude
Unknown
Longitude
Unknown
Altitude
Unknown
Speed
Unknown
Apparent Right ascension
Unknown
Apparent Declination
Unknown
Sunlit
N/A
Visualization observer readout
Local Sidereal Time
22:41:06
Azimuth
Unknown
Elevation
Unknown
Doppler factor
Unknown
Orbital elements
Apogee altitude
285.607 km
Perigee altitude
273.948 km
Semi-major axis
6,657.915 km
Eccentricity
0.00088
Inclination
53.0185°
RAAN
159.7599°
Arg. of periapsis
255.3907°
True anomaly
17.64679°
Mean anomaly
17.6164°
Eccentric anomaly
17.63159°
Mean motion
3.99518 °/min
Orbital period
90.11 mins
BSTAR
0.001747
Loading maneuver chart data...
Computing Atmospheric mass density...

Documentation

Showing up to 5 results
|